Temperature
-1 -0 -1 -1 -1 -1 -1 -1 -1 -1 -2 -1 -2 -3 -3 -3 -3 -4 -4 -4 -4 -5 -5 -5 -5 -5 -5 -6 -6 -6 -6 -6 -6 -6 -6 -6 -6 -6 -6 -6 -6 -6 -6 -6
-1 -1 -2 -1 -1 -1 -1 -2 -2 -2 -2 -3 -3 -3 -4 -4 -4 -4 -5 -5 -5 -5 -5 -5 -6 -6 -6 -6 -6 -6 -6 -6 -6 -7 -7 -7 -7 -7 -6 -6 -7 -7 -6 -6
-1 -2 -2 -1 -2 -2 -2 -3 -3 -2 -2 -4 -4 -5 -5 -4 -4 -5 -5 -5 -5 -6 -6 -6 -6 -6 -6 -7 -7 -7 -7 -7 -7 -7 -7 -7 -7 -7 -7 -7 -7 -7 -7 -7
-3 -2 -1 -0 -3 -3 -3 -4 -4 -4 -4 -5 -5 -5 -4 -4 -5 -5 -5 -6 -6 -6 -6 -6 -7 -7 -7 -7 -7 -7 -7 -7 -7 -7 -8 -8 -8 -8 -8 -7 -8 -7 -7 -7
-3 -3 -2 -2 -3 -4 -4 -4 -5 -5 -5 -5 -5 -6 -5 -4 -5 -5 -5 -6 -6 -6 -7 -7 -7 -7 -7 -7 -8 -8 -8 -8 -8 -8 -8 -8 -8 -8 -8 -8 -8 -8 -8 -8
-4 -2 -1 -1 -4 -4 -4 -3 -5 -5 -6 -6 -6 -6 -6 -5 -5 -6 -6 -6 -7 -7 -7 -7 -8 -8 -8 -8 -8 -8 -8 -8 -8 -8 -9 -9 -9 -9 -9 -9 -9 -9 -8 -8
-4 -3 -3 -4 -5 -4 -3 -2 -4 -5 -5 -6 -7 -6 -5 -6 -6 -6 -6 -7 -7 -7 -8 -8 -8 -8 -8 -8 -8 -8 -9 -9 -9 -9 -9 -9 -9 -9 -9 -9 -9 -9 -9 -8
-5 -4 -3 -5 -6 -5 -4 -4 -5 -5 -5 -5 -6 -6 -6 -6 -7 -7 -7 -7 -8 -8 -8 -8 -9 -9 -9 -9 -9 -9 -9 -9 -9 -9 -9 -10 -10 -10 -10 -10 -10 -10 -9 -9
-4 -3 -5 -6 -5 -5 -5 -5 -5 -5 -5 -6 -6 -7 -7 -7 -7 -7 -8 -8 -8 -8 -8 -9 -9 -9 -9 -9 -9 -9 -9 -9 -9 -10 -10 -10 -10 -10 -10 -10 -10 -10 -10 -10
-6 -6 -6 -6 -5 -5 -5 -5 -5 -5 -6 -6 -7 -7 -7 -8 -8 -8 -8 -8 -9 -9 -9 -9 -9 -10 -10 -10 -10 -10 -10 -10 -10 -10 -10 -10 -10 -10 -10 -11 -11 -11 -11 -11
-7 -7 -7 -6 -5 -5 -5 -5 -6 -6 -6 -7 -7 -7 -8 -8 -8 -8 -9 -9 -9 -9 -9 -10 -10 -10 -10 -10 -10 -10 -10 -10 -10 -11 -11 -11 -11 -11 -11 -11 -11 -11 -11 -11
-5 -6 -7 -6 -5 -5 -6 -6 -6 -6 -7 -7 -8 -8 -8 -8 -9 -9 -9 -9 -10 -10 -10 -10 -10 -10 -10 -10 -10 -11 -11 -11 -11 -11 -11 -11 -11 -11 -11 -11 -11 -11 -11 -11
-5 -6 -6 -6 -6 -6 -6 -7 -7 -7 -7 -8 -8 -8 -9 -9 -9 -9 -10 -10 -10 -10 -10 -10 -11 -11 -11 -11 -11 -11 -11 -11 -11 -11 -11 -11 -11 -11 -11 -11 -11 -11 -11 -11
-6 -6 -7 -7 -7 -7 -7 -7 -7 -8 -8 -8 -8 -9 -9 -9 -10 -10 -10 -10 -10 -10 -11 -11 -11 -11 -11 -11 -11 -11 -11 -11 -11 -11 -11 -12 -12 -12 -12 -12 -11 -11 -11 -11
-7 -7 -7 -7 -7 -8 -8 -8 -8 -8 -8 -9 -9 -9 -10 -10 -10 -10 -11 -11 -11 -11 -11 -11 -11 -11 -11 -12 -11 -11 -12 -12 -12 -12 -12 -12 -12 -12 -12 -12 -12 -12 -12 -11
-7 -7 -7 -8 -8 -8 -8 -9 -9 -9 -9 -9 -9 -10 -10 -10 -11 -11 -11 -11 -11 -11 -11 -11 -11 -12 -12 -12 -12 -12 -12 -12 -12 -12 -12 -12 -12 -12 -12 -12 -12 -12 -12 -12
-8 -8 -9 -9 -9 -9 -9 -9 -9 -9 -9 -10 -10 -10 -11 -11 -11 -11 -11 -12 -12 -12 -12 -12 -12 -12 -12 -12 -12 -12 -12 -12 -12 -12 -12 -12 -12 -12 -12 -13 -13 -13 -13 -13
-8 -8 -8 -8 -9 -9 -9 -9 -9 -10 -10 -10 -10 -11 -11 -11 -11 -11 -12 -12 -12 -12 -12 -12 -12 -12 -12 -13 -13 -13 -13 -13 -13 -13 -13 -12 -13 -13 -13 -13 -13 -13 -13 -13
-9 -9 -9 -9 -9 -9 -9 -9 -10 -10 -10 -10 -11 -11 -11 -11 -12 -12 -12 -12 -12 -12 -12 -12 -13 -13 -13 -13 -13 -13 -13 -13 -13 -13 -13 -13 -13 -13 -13 -13 -13 -13 -13 -13
-9 -9 -9 -9 -9 -10 -10 -10 -10 -10 -11 -11 -11 -11 -11 -12 -12 -12 -12 -12 -13 -13 -13 -13 -13 -13 -13 -13 -13 -13 -13 -13 -13 -13 -13 -13 -13 -13 -13 -13 -13 -13 -13 -13
-9 -10 -10 -10 -10 -10 -10 -10 -11 -11 -11 -11 -11 -11 -12 -12 -12 -12 -13 -12 -12 -13 -13 -13 -13 -13 -13 -13 -14 -13 -13 -13 -13 -13 -13 -13 -13 -13 -13 -13 -13 -13 -13 -13
-10 -10 -10 -10 -10 -11 -11 -11 -11 -11 -11 -11 -12 -12 -12 -12 -12 -13 -13 -13 -13 -13 -13 -13 -13 -13 -14 -14 -14 -14 -14 -14 -14 -13 -13 -13 -13 -13 -13 -14 -14 -14 -14 -13
-11 -11 -11 -11 -11 -11 -11 -11 -11 -11 -12 -12 -12 -12 -12 -13 -13 -13 -13 -13 -13 -13 -13 -13 -14 -14 -14 -14 -14 -14 -14 -14 -14 -14 -14 -14 -14 -14 -14 -14 -14 -14 -14 -14
-11 -11 -11 -11 -11 -11 -11 -12 -12 -12 -12 -12 -12 -13 -13 -13 -13 -13 -13 -13 -13 -13 -13 -14 -14 -14 -14 -14 -14 -14 -14 -14 -14 -14 -14 -14 -14 -14 -14 -14 -14 -14 -14 -14
-11 -11 -12 -12 -12 -12 -12 -12 -12 -12 -12 -12 -13 -13 -13 -13 -13 -13 -13 -13 -13 -14 -14 -14 -14 -14 -14 -14 -14 -14 -14 -14 -14 -14 -14 -14 -14 -14 -14 -14 -14 -14 -14 -14
-12 -12 -12 -12 -12 -12 -12 -12 -13 -13 -13 -13 -13 -13 -13 -13 -13 -13 -13 -13 -14 -14 -14 -14 -14 -14 -14 -14 -14 -14 -14 -14 -14 -14 -14 -14 -14 -14 -14 -14 -14 -14 -14 -14
-12 -12 -12 -12 -12 -13 -13 -13 -13 -13 -13 -13 -13 -13 -13 -13 -13 -13 -14 -14 -14 -14 -14 -14 -14 -14 -14 -14 -14 -14 -14 -14 -14 -14 -14 -14 -14 -14 -14 -14 -14 -14 -14 -14
Wind_Speed
7 5 4 7 8 8 11 10 10 10 10 12 8 6 5 3 2 2 3 3 3 4 4 4 4 5 5 5 5 6 6 6 7 7 7 7 7 8 8 8 9 9 9 9
5 4 5 8 11 11 12 10 11 11 12 8 5 2 2 3 3 3 4 4 4 4 4 5 5 6 6 6 6 6 6 7 7 7 7 7 7 8 8 8 9 9 9 9
5 3 4 8 9 10 6 6 7 11 10 4 4 4 4 4 3 4 5 5 5 5 5 5 6 6 6 7 6 6 7 7 7 7 8 8 8 8 8 8 8 9 9 9
2 2 7 6 1 4 6 5 6 6 5 4 5 4 4 3 3 4 5 5 5 5 5 5 5 6 6 6 6 6 7 7 7 7 8 8 8 8 8 8 8 9 9 9
2 4 9 6 2 3 4 6 5 7 7 4 2 3 3 2 2 3 4 4 4 4 5 5 5 6 6 6 6 6 7 8 8 8 8 8 9 9 8 8 9 9 9 9
3 3 7 5 1 1 2 5 3 4 5 3 1 2 4 2 3 3 3 3 4 4 4 4 5 5 5 6 6 7 8 9 8 8 8 9 9 9 8 8 9 9 10 9
6 7 9 4 1 3 3 6 1 2 3 3 4 5 3 3 4 3 4 4 3 3 4 5 5 5 5 6 7 8 8 9 8 8 8 8 7 7 7 8 8 8 9 9
5 6 9 2 5 6 5 1 0 1 2 3 4 3 3 3 4 4 4 4 4 4 5 5 4 4 6 7 7 7 8 8 8 7 7 7 7 7 7 7 7 7 7 8
8 7 2 4 4 2 1 2 2 2 2 2 2 3 4 4 4 4 4 4 4 4 5 5 4 4 6 7 7 7 7 7 7 8 7 7 6 7 6 5 5 7 7 7
5 6 4 4 3 2 2 3 3 2 2 2 3 3 4 4 4 4 5 5 4 5 5 6 6 6 6 7 6 5 6 7 7 6 7 6 6 6 5 5 6 7 7 7
4 5 4 4 4 4 3 2 2 2 2 2 3 3 4 4 5 4 5 5 4 4 6 7 6 7 7 6 5 5 6 6 6 6 6 6 6 5 6 5 6 7 6 6
6 5 4 5 2 2 2 3 3 3 3 2 3 4 4 4 4 4 5 5 5 5 6 7 7 7 7 6 5 5 6 6 5 5 6 5 6 7 9 10 13 13 12 11
5 3 3 4 2 1 2 3 3 3 4 3 3 3 3 4 4 4 5 5 6 6 6 6 7 7 7 6 6 5 5 6 5 5 5 6 6 6 8 10 12 12 13 14
3 2 3 3 4 3 2 2 2 2 2 2 3 3 3 3 4 4 5 5 6 6 6 6 6 7 6 6 6 5 5 6 6 5 5 5 6 6 6 7 8 8 10 13
4 4 4 3 2 2 1 1 2 3 2 3 2 3 3 4 5 5 5 5 5 5 5 5 6 7 6 5 6 6 5 5 5 5 5 5 5 5 5 6 6 7 8 9
2 1 2 2 3 3 2 2 3 4 4 4 3 4 4 4 5 5 5 4 4 6 6 6 6 6 6 5 6 5 5 8 7 5 5 5 5 5 5 6 6 6 7 8
1 2 3 3 4 4 4 4 4 5 4 4 4 4 4 4 4 4 5 4 4 5 5 5 6 6 6 5 5 4 4 6 8 6 5 5 5 5 5 5 5 6 6 8
3 4 5 5 4 5 5 4 4 4 4 4 4 3 3 4 5 5 5 5 5 5 5 5 6 6 5 5 5 4 4 4 4 5 5 5 5 5 5 5 6 6 6 8
2 2 3 3 3 3 4 4 4 4 3 3 3 4 4 4 5 5 4 4 5 5 5 5 9 7 6 6 6 3 4 4 5 5 5 7 7 5 5 5 5 6 6 6
2 2 2 2 2 2 3 3 3 3 3 3 3 3 4 4 4 4 4 4 4 4 5 7 6 5 5 6 6 3 3 4 5 5 5 5 5 5 5 5 6 6 6 6
3 2 2 2 2 3 3 2 2 3 3 3 3 4 5 5 4 3 3 5 5 4 5 8 5 5 5 5 5 2 3 4 4 5 5 5 5 6 5 5 6 6 6 6
2 2 2 2 3 3 3 2 2 3 3 3 3 3 4 4 4 4 4 4 5 7 6 4 4 7 7 6 2 3 3 4 4 4 5 5 5 6 6 6 6 6 6 6
2 2 2 2 2 3 3 3 3 2 3 3 4 4 4 4 3 3 5 4 4 8 6 4 7 10 9 4 2 3 4 4 4 5 5 5 5 6 6 6 6 6 6 6
2 2 2 2 2 2 3 4 3 3 3 3 3 4 3 4 4 3 4 7 8 8 5 7 9 10 8 3 3 3 4 4 5 5 5 5 5 5 6 6 6 6 6 7
2 2 2 2 2 2 3 3 3 3 3 3 4 4 3 3 4 4 4 4 7 7 5 7 9 9 5 3 4 4 4 5 5 5 5 5 5 5 6 6 6 6 6 6
2 2 2 2 2 3 2 2 3 3 3 4 4 4 3 3 3 3 3 4 5 6 5 4 5 6 4 4 4 5 5 6 6 6 5 6 6 6 6 7 7 6 6 7
2 2 2 3 3 3 2 2 3 4 4 4 5 4 4 4 3 3 4 4 4 4 4 4 4 4 4 4 5 5 5 5 5 5 5 5 6 6 6 7 7 7 7 8
Wind_Direction
258 266 243 241 242 217 215 218 226 249 249 266 265 259 260 257 265 281 294 297 302 303 304 308 311 311 311 309 314 312 303 300 298 299 300 302 304 305 306 306 306 304 303 302
274 267 258 265 254 235 234 236 241 259 269 271 275 272 260 258 258 277 284 289 295 299 308 308 309 310 311 307 309 309 304 295 299 304 305 305 306 307 307 306 305 305 302 301
269 308 328 272 241 215 211 213 207 236 251 273 287 276 259 251 258 268 280 290 291 291 292 296 298 303 301 300 306 309 307 303 303 304 305 306 308 307 304 304 303 303 300 298
268 357 253 251 128 183 203 237 222 239 262 264 263 279 269 238 241 272 286 292 291 292 295 298 299 301 301 304 306 309 309 308 305 306 305 306 304 303 302 302 300 300 299 297
187 251 274 287 228 169 198 265 228 232 257 281 309 332 294 257 263 264 275 282 282 284 290 297 300 303 307 308 308 309 309 310 308 305 302 302 301 299 300 300 300 299 297 296
176 226 254 264 190 175 117 279 249 211 239 255 80 293 274 308 319 303 303 302 303 306 308 306 306 309 307 306 308 306 305 304 303 301 301 296 293 295 297 298 298 301 302 300
210 236 263 260 196 124 175 263 288 196 219 201 211 231 271 315 318 310 310 316 318 312 307 304 309 313 310 308 305 304 306 305 304 302 298 296 293 293 297 300 302 301 301 301
182 219 256 174 139 181 224 294 179 231 232 225 243 272 296 309 314 319 322 326 323 316 312 313 315 316 311 305 306 310 310 308 306 304 303 308 305 299 298 299 303 302 303 306
200 220 261 166 191 217 206 237 243 240 249 231 255 281 295 303 307 312 315 315 315 310 311 314 314 310 302 304 311 312 312 309 308 310 309 309 305 301 302 302 305 308 309 310
243 261 258 238 239 267 260 248 254 254 257 238 256 272 286 297 306 311 312 312 314 314 314 314 317 315 302 306 311 309 308 308 311 313 312 310 309 307 305 304 305 309 312 312
253 276 301 271 239 248 262 260 278 293 271 248 254 273 276 287 296 301 309 312 311 307 305 308 314 314 315 316 317 314 310 311 315 315 310 308 309 307 309 295 299 309 310 310
242 235 224 252 246 225 242 261 258 265 282 275 251 263 275 279 285 292 301 307 310 309 308 309 314 315 317 320 318 313 316 317 315 313 314 316 317 319 322 326 324 324 325 324
242 259 245 258 282 254 258 269 273 260 256 269 269 261 271 280 286 293 298 302 301 302 303 308 313 314 317 322 321 311 308 313 315 318 318 318 319 324 325 330 335 333 333 334
232 232 261 261 265 275 269 279 290 290 275 269 271 279 278 284 293 293 292 293 296 300 303 308 311 312 314 319 321 319 314 313 317 312 312 313 314 317 319 324 328 331 333 335
261 243 235 249 269 293 295 306 309 300 298 298 288 283 282 284 287 289 293 301 308 308 308 312 312 312 317 320 323 322 320 317 316 314 314 315 316 317 318 320 323 325 329 334
281 264 214 228 258 274 281 277 275 280 283 284 285 285 280 278 284 291 296 299 303 303 306 308 307 311 318 322 324 325 321 323 329 324 321 322 321 319 321 323 325 327 328 330
235 257 253 263 269 272 263 257 257 267 274 274 277 287 292 295 298 300 303 302 295 292 296 300 306 315 318 319 321 321 320 323 328 329 325 321 319 317 317 319 321 323 323 326
242 244 238 233 246 261 269 266 261 266 269 274 283 287 283 282 285 294 302 310 314 312 306 306 310 316 319 321 322 320 322 321 323 321 321 319 318 318 320 320 319 320 322 327
301 282 267 257 251 248 255 262 263 265 270 271 273 273 273 272 276 286 298 304 307 306 305 307 319 326 321 318 327 319 320 320 319 318 317 320 325 324 320 320 320 322 324 329
326 317 298 292 284 261 266 271 268 273 272 263 268 277 284 285 285 290 294 288 276 276 290 306 316 318 315 312 321 320 320 318 317 316 317 317 316 317 317 318 320 322 325 327
327 324 318 312 309 298 278 268 264 273 282 271 261 269 279 287 287 285 290 299 300 298 304 314 322 313 310 315 327 337 322 316 315 314 313 314 314 315 316 318 320 321 322 324
316 314 309 309 310 310 305 290 270 273 285 286 281 278 285 293 298 296 279 273 290 311 320 309 308 310 320 329 340 326 316 313 311 311 310 311 312 313 314 315 316 316 318 319
314 311 312 310 304 304 313 307 286 279 279 281 282 282 284 287 288 291 302 301 302 309 316 303 310 317 325 339 327 315 310 307 306 306 306 307 307 307 308 308 308 310 311 313
336 335 328 325 332 333 323 316 312 304 292 287 281 280 285 298 301 283 278 301 313 313 312 308 317 321 328 335 312 305 301 299 298 297 299 301 304 306 306 305 304 305 306 307
337 338 342 344 338 319 310 320 327 323 320 317 314 307 298 285 284 298 299 299 308 316 315 314 319 323 328 316 306 301 298 294 294 297 298 302 302 301 301 300 299 300 302 303
336 327 316 308 306 308 313 319 319 317 320 321 322 318 315 310 298 299 304 303 303 313 315 309 310 314 314 307 302 300 297 298 302 302 296 295 295 296 297 298 297 297 296 297
344 341 340 338 334 329 324 321 316 314 313 308 309 315 318 319 317 316 313 312 311 311 309 308 308 307 307 304 303 301 298 295 293 293 293 291 291 291 293 294 293 294 294 295
Height
1528 1526 1527 1526 1525 1527 1528 1525 1525 1516 1515 1507 1507 1507 1507 1507 1506 1506 1506 1505 1504 1503 1502 1500 1499 1497 1496 1494 1492 1490 1488 1486 1484 1482 1479 1477 1474 1472 1469 1467 1464 1462 1460 1457
1528 1525 1526 1524 1519 1520 1520 1519 1518 1515 1511 1505 1505 1505 1505 1504 1504 1503 1503 1502 1501 1500 1499 1497 1495 1494 1492 1490 1488 1486 1484 1481 1479 1477 1475 1472 1470 1467 1465 1462 1460 1457 1455 1452
1527 1527 1524 1519 1511 1512 1513 1512 1512 1511 1506 1503 1504 1503 1503 1502 1502 1501 1500 1499 1498 1497 1495 1494 1492 1490 1488 1486 1484 1482 1480 1477 1475 1473 1470 1468 1465 1463 1460 1457 1455 1452 1449 1447
1531 1529 1523 1506 1505 1505 1507 1507 1507 1504 1502 1502 1502 1501 1500 1500 1500 1499 1498 1496 1495 1493 1492 1491 1489 1487 1485 1483 1480 1478 1475 1473 1471 1468 1466 1463 1461 1458 1455 1453 1450 1447 1444 1441
1531 1528 1515 1506 1504 1505 1507 1505 1502 1502 1501 1500 1500 1499 1498 1498 1497 1496 1495 1494 1492 1491 1489 1487 1486 1483 1481 1479 1476 1474 1472 1469 1467 1464 1461 1458 1456 1453 1450 1448 1445 1442 1439 1436
1529 1524 1512 1501 1503 1502 1504 1503 1498 1498 1498 1499 1499 1501 1498 1496 1495 1494 1493 1491 1489 1488 1486 1484 1482 1480 1477 1475 1472 1470 1467 1465 1463 1460 1457 1454 1451 1449 1446 1444 1440 1438 1435 1432
1526 1523 1509 1503 1502 1502 1506 1499 1497 1496 1496 1497 1497 1497 1495 1494 1493 1492 1490 1488 1486 1484 1482 1480 1478 1476 1473 1471 1469 1466 1464 1461 1458 1456 1453 1450 1447 1445 1442 1439 1436 1433 1430 1428
1523 1522 1509 1501 1501 1502 1498 1495 1495 1494 1494 1495 1494 1493 1492 1491 1490 1489 1487 1485 1483 1481 1479 1477 1475 1473 1470 1467 1465 1463 1460 1457 1454 1452 1449 1446 1443 1441 1438 1436 1432 1429 1426 1423
1507 1502 1497 1496 1495 1494 1494 1494 1493 1493 1493 1493 1492 1491 1490 1489 1487 1486 1484 1482 1480 1478 1476 1474 1472 1469 1466 1464 1461 1458 1456 1453 1451 1448 1445 1443 1440 1437 1434 1432 1429 1426 1423 1419
1502 1496 1494 1494 1493 1493 1493 1492 1491 1491 1491 1490 1489 1488 1487 1486 1484 1483 1481 1479 1477 1475 1472 1470 1468 1466 1463 1460 1458 1455 1452 1450 1447 1444 1442 1440 1437 1434 1432 1429 1426 1423 1420 1417
1498 1494 1492 1490 1490 1490 1490 1490 1489 1489 1489 1488 1487 1485 1484 1483 1481 1480 1478 1476 1474 1472 1470 1467 1465 1462 1460 1457 1455 1452 1449 1447 1444 1442 1439 1437 1434 1432 1429 1427 1425 1422 1419 1415
1491 1489 1489 1487 1488 1488 1488 1487 1487 1486 1485 1485 1484 1483 1482 1480 1479 1477 1475 1473 1471 1469 1467 1465 1462 1459 1457 1455 1452 1450 1447 1444 1442 1439 1437 1434 1432 1429 1427 1425 1422 1419 1416 1414
1486 1485 1485 1485 1485 1486 1485 1485 1484 1483 1482 1481 1481 1480 1479 1477 1476 1474 1472 1470 1468 1466 1464 1462 1459 1457 1454 1452 1450 1448 1445 1443 1440 1438 1435 1433 1430 1427 1423 1421 1419 1416 1413 1410
1484 1484 1482 1482 1483 1483 1483 1482 1481 1481 1480 1479 1478 1477 1475 1474 1472 1471 1469 1467 1465 1463 1461 1459 1456 1454 1452 1449 1447 1445 1443 1441 1439 1436 1433 1431 1428 1425 1422 1418 1415 1412 1410 1407
1480 1480 1480 1480 1480 1480 1480 1479 1478 1477 1476 1476 1475 1473 1472 1470 1469 1467 1466 1464 1462 1460 1458 1456 1454 1452 1449 1447 1445 1443 1441 1439 1436 1434 1432 1429 1427 1424 1420 1417 1414 1410 1407 1404
1477 1477 1477 1477 1477 1477 1476 1476 1475 1474 1473 1472 1471 1470 1469 1467 1465 1464 1462 1460 1458 1456 1455 1453 1451 1449 1447 1445 1443 1441 1439 1437 1435 1432 1430 1427 1424 1422 1419 1416 1413 1409 1406 1403
1474 1474 1474 1473 1473 1473 1473 1473 1472 1471 1470 1469 1468 1467 1465 1464 1462 1461 1459 1457 1456 1454 1452 1451 1449 1447 1445 1443 1441 1439 1436 1434 1432 1430 1428 1425 1423 1420 1417 1415 1412 1408 1405 1403
1472 1472 1472 1471 1471 1470 1470 1470 1469 1468 1467 1466 1465 1464 1462 1460 1459 1457 1456 1454 1453 1451 1450 1448 1446 1445 1443 1441 1439 1437 1435 1432 1430 1428 1426 1423 1421 1418 1416 1413 1410 1407 1404 1402
1469 1469 1469 1469 1469 1468 1467 1467 1466 1465 1464 1463 1462 1460 1459 1458 1456 1454 1453 1451 1450 1448 1447 1446 1444 1442 1440 1439 1437 1435 1433 1431 1429 1426 1424 1422 1419 1417 1414 1412 1409 1406 1403 1400
1467 1467 1467 1466 1466 1465 1464 1464 1463 1462 1461 1460 1458 1457 1456 1455 1453 1452 1450 1449 1448 1446 1444 1443 1441 1440 1438 1436 1435 1433 1431 1429 1427 1424 1422 1420 1417 1415 1412 1409 1407 1404 1401 1398
1466 1465 1464 1464 1463 1463 1462 1461 1460 1459 1458 1457 1456 1454 1453 1452 1451 1449 1447 1446 1445 1444 1442 1441 1439 1437 1436 1434 1432 1431 1429 1426 1424 1422 1419 1417 1415 1412 1410 1407 1405 1402 1399 1397
1464 1463 1462 1462 1461 1460 1459 1459 1458 1457 1455 1454 1453 1452 1451 1449 1448 1446 1446 1444 1443 1441 1440 1438 1436 1435 1434 1432 1430 1428 1426 1424 1422 1420 1418 1415 1413 1410 1408 1406 1403 1400 1398 1395
1463 1462 1461 1460 1459 1458 1457 1457 1456 1455 1453 1452 1451 1450 1448 1447 1445 1444 1442 1442 1440 1439 1437 1436 1434 1433 1431 1429 1428 1426 1424 1422 1420 1417 1415 1413 1411 1408 1406 1404 1401 1399 1396 1393
1462 1461 1460 1459 1458 1457 1455 1455 1454 1452 1451 1450 1449 1448 1446 1444 1443 1442 1441 1439 1438 1436 1435 1433 1432 1430 1429 1427 1425 1423 1421 1419 1417 1415 1413 1411 1409 1406 1404 1401 1399 1396 1394 1391
1461 1460 1459 1458 1456 1455 1454 1453 1451 1450 1449 1448 1447 1446 1444 1443 1441 1440 1438 1437 1435 1434 1432 1431 1430 1428 1426 1424 1423 1421 1419 1417 1415 1412 1410 1408 1406 1404 1401 1399 1397 1394 1392 1389
1460 1459 1458 1457 1456 1454 1453 1451 1450 1448 1447 1445 1444 1443 1442 1441 1439 1438 1436 1434 1433 1432 1430 1429 1427 1425 1424 1422 1420 1418 1416 1414 1412 1410 1408 1405 1403 1401 1399 1396 1394 1392 1389 1387
1460 1459 1457 1456 1455 1453 1452 1450 1449 1447 1445 1443 1442 1441 1440 1439 1437 1435 1434 1432 1431 1430 1428 1426 1425 1423 1421 1419 1417 1415 1413 1411 1409 1407 1405 1402 1400 1398 1396 1393 1391 1389 1387 1384